Overview Statistics Trail Chart Weather Telemetry Raw packets
 

This is the latest recevied weather packets stored in our database for station/object SV9TNF-52. If no packets are shown the sender has not sent any weather packets the latest 10 day(s).

<< 4 5 6 7 8 9 10 >>
Time Temp. Humidity Pressure Rain* Wind** Luminosity Snow
1788625067 27.78° C 61% 1022.4 hPa 0 mm 4.02 m/s, 226° - -
1788624767 27.78° C 59% 1022.4 hPa 0 mm 5.81 m/s, 266° - -
1788624467 28.33° C 59% 1022.4 hPa 0 mm 5.81 m/s, 237° - -
1788624168 28.33° C 58% 1022.4 hPa 0 mm 3.13 m/s, 315° - -
1788623867 28.33° C 59% 1022.4 hPa 0 mm 3.58 m/s, 226° - -
1788623567 28.33° C 58% 1022.4 hPa 0 mm 4.92 m/s, 235° - -
1788623267 28.33° C 57% 1022.4 hPa 0 mm 3.58 m/s, 299° - -
1788622967 28.33° C 58% 1022.4 hPa 0 mm 4.92 m/s, 356° - -
1788622666 28.33° C 58% 1022.4 hPa 0 mm 3.58 m/s, 115° - -
1788622366 28.33° C 58% 1022.4 hPa 0 mm 3.58 m/s, 23° - -
1788622067 28.33° C 58% 1022.4 hPa 0 mm 5.81 m/s, 358° - -
1788621766 28.89° C 58% 1022.4 hPa 0 mm 7.15 m/s, 74° - -
1788621466 28.89° C 56% 1022.4 hPa 0 mm 5.81 m/s, 307° - -
1788621166 28.89° C 56% 1022.4 hPa 0 mm 2.68 m/s, 325° - -
1788620866 29.44° C 57% 1022.4 hPa 0 mm 3.58 m/s, 236° - -
1788620566 29.44° C 54% 1022.4 hPa 0 mm 3.58 m/s, 13° - -
1788620266 29.44° C 56% 1022.4 hPa 0 mm 6.26 m/s, 259° - -
1788619966 29.44° C 54% 1022.4 hPa 0 mm 1.34 m/s, 14° - -
1788619666 29.44° C 53% 1022.4 hPa 0 mm 4.92 m/s, 343° - -
1788619365 30° C 54% 1022.4 hPa 0 mm 3.58 m/s, 193° - -
1788619065 30° C 52% 1022.4 hPa 0 mm 4.92 m/s, 255° - -
1788618765 30° C 53% 1022 hPa 0 mm 2.68 m/s, 237° - -
1788618465 29.44° C 54% 1022 hPa 0 mm 4.47 m/s, 38° - -
1788618166 29.44° C 54% 1022 hPa 0 mm 6.26 m/s, 350° - -
1788617865 29.44° C 54% 1022 hPa 0 mm 4.47 m/s, 233° - -

* Rain latest hour (hover to see other rain measurements)
** Current wind speed in m/s (hover to see current wind gust speed)